Date String (YYYY-MM-DD hh:mm:ss) UTC,Instrument flags,Ambient pressure (hPa),Sample flow (lpm),Bypass flow (lpm),Sample temperature (°C),Ambient temperature (°C),ASC tube jacket temperature (°C),LED temperature (°C),Box temperature (°C),Sample RH (%),Span deviation,Mass concentration (μg/m³),Mass concentration (μg/m³),Mass concentration (μg/m³)
DateTimeUTC,F1_M11,P_M11,Q1_M11,Q2_M11,T1_M11,T2_M11,T3_M11,T4_M11,T5_M11,U1_M11,ZSPAN_M11,X2_M11,X0_M11,X1_M11
2023-02-17 06:00:00,,0827.9,4.98,0.00,22.4,21.4,00.0,31.2,24.1,06.4,0000.0,0003.56,0006.84,0003.08
2023-02-17 06:01:00,,0828.0,4.96,0.00,22.5,22.5,00.0,31.2,24.4,06.3,0000.0,0003.57,0007.19,0003.07
2023-02-17 06:02:00,,0828.0,4.97,0.00,22.6,23.3,00.0,31.2,24.6,06.3,0000.0,0003.58,0007.31,0003.08
2023-02-17 06:03:00,,0827.9,4.97,0.00,22.7,23.0,00.0,31.3,24.6,06.2,0000.0,0003.59,0007.60,0003.07
2023-02-17 06:04:00,,0828.0,4.97,0.00,22.6,22.3,00.0,31.3,24.4,06.2,0000.0,0003.59,0007.65,0003.07
2023-02-17 06:05:00,,0828.0,4.96,0.00,22.6,21.7,00.0,31.4,24.3,06.3,0000.0,0003.59,0007.87,0003.10
2023-02-17 06:06:00,,0827.9,5.01,0.00,22.6,21.3,00.0,31.4,24.1,06.3,0000.0,0003.54,0008.13,0003.09
2023-02-17 06:07:00,,0827.9,5.00,0.00,22.5,20.9,00.0,31.4,24.1,06.3,0000.0,0003.50,0008.11,0003.07
2023-02-17 06:08:00,,0827.9,4.99,0.00,22.5,20.7,00.0,31.3,24.0,06.4,0000.0,0003.50,0008.54,0003.04
2023-02-17 06:09:00,,0828.0,5.02,0.00,22.4,20.4,00.0,31.3,24.0,06.4,0000.0,0003.52,0008.83,0003.05
2023-02-17 06:10:00,,0827.9,5.00,0.00,22.4,20.3,00.0,31.3,23.9,06.4,0000.0,0003.53,0008.80,0003.05
2023-02-17 06:11:00,,0828.1,5.00,0.00,22.4,21.2,00.0,31.2,24.1,06.4,0000.0,0003.52,0008.83,0003.05
2023-02-17 06:12:00,,0827.9,4.97,0.00,22.5,22.4,00.0,31.2,24.4,06.3,0000.0,0003.53,0009.04,0003.06
2023-02-17 06:13:00,,0827.9,4.97,0.00,22.6,23.3,00.0,31.2,24.6,06.2,0000.0,0003.54,0009.04,0003.06
2023-02-17 06:14:00,,0827.9,4.95,0.00,22.7,23.1,00.0,31.3,24.6,06.1,0000.0,0003.51,0008.68,0003.06
2023-02-17 06:15:00,,0827.8,5.00,0.00,22.7,22.4,00.0,31.3,24.5,06.1,0000.0,0003.54,0008.82,0003.05
2023-02-17 06:16:00,,0827.9,5.00,0.00,22.6,21.8,00.0,31.4,24.3,06.2,0000.0,0003.54,0008.66,0003.05
2023-02-17 06:17:00,,0827.9,5.01,0.00,22.6,21.3,00.0,31.4,24.2,06.2,0000.0,0003.55,0008.41,0003.06
2023-02-17 06:18:00,,0827.9,5.00,0.00,22.5,20.9,00.0,31.4,24.1,06.3,0000.0,0003.56,0008.93,0003.08
2023-02-17 06:19:00,,0827.9,4.97,0.00,22.5,20.7,00.0,31.4,24.0,06.2,0000.0,0003.56,0008.79,0003.07
2023-02-17 06:20:00,,0827.9,4.98,0.00,22.4,20.5,00.0,31.3,23.9,06.1,0000.0,0003.56,0008.45,0003.07
2023-02-17 06:21:00,,0827.9,4.99,0.00,22.4,20.5,00.0,31.3,23.9,06.2,0000.0,0003.55,0008.59,0003.08
2023-02-17 06:22:00,,0827.9,4.98,0.00,22.4,21.6,00.0,31.2,24.2,06.3,0000.0,0003.57,0008.81,0003.09
2023-02-17 06:23:00,,0827.9,4.99,0.00,22.6,22.7,00.0,31.2,24.4,06.4,0000.0,0003.57,0008.40,0003.09
2023-02-17 06:24:00,,0827.9,5.04,0.00,22.7,23.4,00.0,31.2,24.7,06.3,0000.0,0003.56,0008.37,0003.10
2023-02-17 06:25:00,,0827.9,4.97,0.00,22.7,22.9,00.0,31.3,24.6,06.2,0000.0,0003.56,0008.38,0003.11
2023-02-17 06:26:00,,0827.8,5.02,0.00,22.7,22.2,00.0,31.4,24.5,06.2,0000.0,0003.52,0008.09,0003.11
2023-02-17 06:27:00,,0827.8,5.00,0.00,22.6,21.7,00.0,31.4,24.3,06.2,0000.0,0003.50,0008.50,0003.10
2023-02-17 06:28:00,,0827.8,5.01,0.00,22.6,21.2,00.0,31.4,24.2,06.2,0000.0,0003.53,0008.74,0003.10
2023-02-17 06:29:00,,0827.8,5.00,0.00,22.5,20.8,00.0,31.4,24.1,06.2,0000.0,0003.56,0008.26,0003.09
2023-02-17 06:30:00,,0827.7,4.98,0.00,22.5,20.6,00.0,31.4,24.0,06.2,0000.0,0003.58,0008.59,0003.11
2023-02-17 06:31:00,,0827.7,5.00,0.00,22.4,20.4,00.0,31.4,23.9,06.2,0000.0,0003.58,0008.60,0003.12
2023-02-17 06:32:00,,0827.7,4.99,0.00,22.4,20.4,00.0,31.3,23.9,06.2,0000.0,0003.61,0008.43,0003.11
2023-02-17 06:33:00,,0827.7,4.94,0.00,22.4,21.3,00.0,31.3,24.1,06.2,0000.0,0003.59,0008.16,0003.10
2023-02-17 06:34:00,,0827.7,4.97,0.00,22.5,22.5,00.0,31.2,24.4,06.2,0000.0,0003.61,0008.17,0003.12
2023-02-17 06:35:00,,0827.7,5.03,0.00,22.7,23.3,00.0,31.3,24.7,06.1,0000.0,0003.60,0008.22,0003.11
2023-02-17 06:36:00,,0827.7,5.09,0.00,22.7,23.0,00.0,31.3,24.6,05.9,0000.0,0003.57,0008.28,0003.08
2023-02-17 06:37:00,,0827.7,5.03,0.00,22.7,22.5,00.0,31.4,24.5,05.9,0000.0,0003.61,0008.49,0003.09
2023-02-17 06:38:00,,0827.7,4.98,0.00,22.7,21.9,00.0,31.4,24.4,05.9,0000.0,0003.61,0008.90,0003.10
2023-02-17 06:39:00,,0827.7,5.03,0.00,22.6,21.5,00.0,31.4,24.3,05.9,0000.0,0003.63,0009.12,0003.11
2023-02-17 06:40:00,,0827.7,5.01,0.00,22.6,21.1,00.0,31.4,24.2,05.9,0000.0,0003.62,0009.05,0003.12
2023-02-17 06:41:00,,0827.7,5.01,0.00,22.5,20.9,00.0,31.4,24.1,06.0,0000.0,0003.61,0008.48,0003.11
2023-02-17 06:42:00,,0827.7,5.00,0.00,22.5,20.7,00.0,31.4,24.1,06.0,0000.0,0003.61,0008.86,0003.11
2023-02-17 06:43:00,,0827.7,5.01,0.00,22.5,20.5,00.0,31.4,24.0,06.1,0000.0,0003.62,0008.92,0003.12
2023-02-17 06:44:00,,0827.7,5.00,0.00,22.4,20.7,00.0,31.4,24.0,06.1,0000.0,0003.63,0009.05,0003.13
2023-02-17 06:45:00,,0827.7,5.00,0.00,22.5,21.8,00.0,31.3,24.3,06.1,0000.0,0003.61,0009.09,0003.13
2023-02-17 06:46:00,,0827.7,5.08,0.00,22.6,22.8,00.0,31.3,24.6,06.0,0000.0,0003.63,0009.12,0003.13
2023-02-17 06:47:00,,0827.7,5.02,0.00,22.7,22.9,00.0,31.3,24.6,06.0,0000.0,0003.68,0009.07,0003.14
2023-02-17 06:48:00,,0827.8,4.99,0.00,22.7,22.3,00.0,31.4,24.5,06.0,0000.0,0003.70,0009.10,0003.15
2023-02-17 06:49:00,,0827.7,5.00,0.00,22.6,21.8,00.0,31.4,24.3,06.0,0000.0,0003.72,0008.28,0003.16
2023-02-17 06:50:00,,0827.7,5.00,0.00,22.6,21.3,00.0,31.4,24.2,06.0,0000.0,0003.69,0008.05,0003.16
2023-02-17 06:51:00,,0827.7,5.00,0.00,22.5,20.9,00.0,31.4,24.1,06.0,0000.0,0003.67,0007.91,0003.17
2023-02-17 06:52:00,,0827.7,5.04,0.00,22.5,20.7,00.0,31.4,24.1,06.0,0000.0,0003.68,0008.20,0003.18
2023-02-17 06:53:00,,0827.7,5.00,0.00,22.4,20.5,00.0,31.4,24.0,06.0,0000.0,0003.70,0007.93,0003.18
2023-02-17 06:54:00,,0827.7,5.01,0.00,22.4,20.5,00.0,31.4,24.0,06.0,0000.0,0003.70,0007.92,0003.18
2023-02-17 06:55:00,,0827.7,5.02,0.00,22.5,21.7,00.0,31.3,24.3,06.0,0000.0,0003.70,0007.88,0003.17
2023-02-17 06:56:00,,0827.7,4.96,0.00,22.6,22.9,00.0,31.2,24.6,06.0,0000.0,0003.72,0007.90,0003.17
2023-02-17 06:57:00,,0827.8,4.98,0.00,22.7,23.6,00.0,31.3,24.8,05.9,0000.0,0003.71,0008.12,0003.17
2023-02-17 06:58:00,,0827.7,4.91,0.00,22.8,23.1,00.0,31.3,24.7,05.9,0000.0,0003.69,0008.33,0003.16
2023-02-17 06:59:00,,0827.7,5.03,0.00,22.8,22.5,00.0,31.4,24.6,05.8,0000.0,0003.65,0008.45,0003.15
